FW3267 Weather Reports


Display with metric or nautical units.
time (UTC)temp
F
wind
direction
speed
MPH
gust
MPH
rain 1hr
in
rain 24hr
in
rain mn
in
humidity
%
barometer
mb
20200713141245 81 183 0.0 3.0 0.00 0.00 0.00 72 1016.3
20200713140744 81 154 0.0 3.0 0.00 0.00 0.00 71 1016.3
20200713140241 80 133 0.0 3.0 0.00 0.00 0.00 72 1016.2
20200713135741 80 139 0.0 4.0 0.00 0.00 0.00 73 1016.2
20200713135241 80 110 0.0 4.0 0.00 0.00 0.00 72 1016.1
20200713134741 80 115 0.0 3.0 0.00 0.00 0.00 72 1016.0
20200713134241 79 133 0.0 3.0 0.00 0.00 0.00 74 1015.8
20200713133739 79 112 0.0 3.0 0.00 0.00 0.00 73 1015.7
20200713133241 79 103 0.0 2.0 0.00 0.00 0.00 73 1015.8
20200713132737 79 169 0.0 1.0 0.00 0.00 0.00 75 1015.6
20200713132238 79 86 0.0 0.0 0.00 0.00 0.00 77 1015.6
20200713131737 78 79 0.0 0.0 0.00 0.00 0.00 78 1015.6
20200713131239 77 127 0.0 0.0 0.00 0.00 0.00 79 1015.6
20200713130738 76 142 0.0 1.0 0.00 0.00 0.00 81 1015.6
20200713130237 75 103 0.0 1.0 0.00 0.00 0.00 82 1015.5
20200713125737 74 136 0.0 1.0 0.00 0.00 0.00 84 1015.4
20200713125238 74 91 0.0 1.0 0.00 0.00 0.00 83 1015.3
20200713124737 74 150 0.0 1.0 0.00 0.00 0.00 84 1015.0
20200713124236 74 142 0.0 1.0 0.00 0.00 0.00 83 1014.8
20200713123735 74 132 0.0 0.0 0.00 0.00 0.00 83 1014.7
20200713123236 74 124 0.0 0.0 0.00 0.00 0.00 84 1014.7
20200713122735 74 126 0.0 0.0 0.00 0.00 0.00 85 1014.7
20200713122233 74 132 0.0 1.0 0.00 0.00 0.00 86 1014.6
20200713121733 73 121 0.0 1.0 0.00 0.00 0.00 87 1014.7
20200713121231 72 140 0.0 1.0 0.00 0.00 0.00 89 1014.8
20200713120733 71 143 0.0 1.0 0.00 0.00 0.00 89 1014.7
20200713120232 71 131 0.0 1.0 0.00 0.00 0.00 90 1014.9
20200713115732 70 124 0.0 0.0 0.00 0.00 0.00 91 1014.7
20200713115231 70 129 0.0 0.0 0.00 0.00 0.00 93 1014.6
20200713114731 69 205 0.0 0.0 0.00 0.00 0.00 94 1014.7
20200713114229 68 210 0.0 0.0 0.00 0.00 0.00 94 1014.7
20200713113729 67 210 0.0 0.0 0.00 0.00 0.00 94 1014.8
20200713113229 67 208 0.0 0.0 0.00 0.00 0.00 94 1014.7
20200713112729 67 208 0.0 0.0 0.00 0.00 0.00 94 1014.7
20200713112230 66 208 0.0 0.0 0.00 0.00 0.00 95 1014.6
20200713111729 66 208 0.0 0.0 0.00 0.00 0.00 94 1014.5
20200713111230 65 208 0.0 0.0 0.00 0.00 0.00 94 1014.6
20200713110729 65 208 0.0 0.0 0.00 0.00 0.00 94 1014.5
20200713110227 65 208 0.0 0.0 0.00 0.00 0.00 94 1014.4
20200713105726 65 208 0.0 0.0 0.00 0.00 0.00 94 1014.5
20200713105225 65 209 0.0 0.0 0.00 0.00 0.00 94 1014.5
20200713104725 66 209 0.0 0.0 0.00 0.00 0.00 94 1014.6
20200713104226 66 208 0.0 0.0 0.00 0.00 0.00 94 1014.5
20200713103726 66 208 0.0 0.0 0.00 0.00 0.00 94 1014.5
20200713103223 66 208 0.0 0.0 0.00 0.00 0.00 94 1014.5
20200713102723 66 208 0.0 0.0 0.00 0.00 0.00 94 1014.5
20200713102223 66 209 0.0 0.0 0.00 0.00 0.00 94 1014.6
20200713101724 66 208 0.0 0.0 0.00 0.00 0.00 93 1014.6
20200713101223 67 226 0.0 0.0 0.00 0.00 0.00 93 1014.5
20200713100723 67 228 0.0 0.0 0.00 0.00 0.00 94 1014.5
20200713100225 67 236 0.0 0.0 0.00 0.00 0.00 94 1014.7
20200713095725 67 243 0.0 0.0 0.00 0.00 0.00 93 1014.6
20200713095224 67 243 0.0 0.0 0.00 0.00 0.00 94 1014.5
20200713094724 67 246 0.0 0.0 0.00 0.00 0.00 94 1014.3
20200713094223 67 239 0.0 0.0 0.00 0.00 0.00 94 1014.3
20200713093723 67 225 0.0 0.0 0.00 0.00 0.00 94 1014.0
20200713093222 67 245 0.0 0.0 0.00 0.00 0.00 94 1014.0
20200713092723 67 245 0.0 0.0 0.00 0.00 0.00 94 1013.9
20200713091721 67 23 0.0 0.0 0.00 0.00 0.00 94 1013.7
20200713091220 67 91 0.0 0.0 0.00 0.00 0.00 95 1013.7
20200713090721 67 132 0.0 0.0 0.00 0.00 0.00 95 1013.6
20200713090221 67 116 0.0 1.0 0.00 0.00 0.00 95 1013.5
20200713085721 66 104 0.0 1.0 0.00 0.00 0.00 95 1013.3
20200713085221 66 121 0.0 0.0 0.00 0.00 0.00 95 1013.3
20200713084721 65 138 0.0 0.0 0.00 0.00 0.00 95 1013.4
20200713084221 65 245 0.0 0.0 0.00 0.00 0.00 95 1013.5
20200713083721 65 246 0.0 0.0 0.00 0.00 0.00 95 1013.4
20200713083220 65 246 0.0 0.0 0.00 0.00 0.00 95 1013.5
20200713082720 65 246 0.0 0.0 0.00 0.00 0.00 95 1013.5
20200713082219 65 246 0.0 0.0 0.00 0.00 0.00 95 1013.3
20200713081721 65 165 0.0 0.0 0.00 0.00 0.00 95 1013.3
20200713081219 64 149 0.0 0.0 0.00 0.00 0.00 94 1013.3
20200713080719 64 149 0.0 0.0 0.00 0.00 0.00 94 1013.5
20200713080220 65 149 0.0 0.0 0.00 0.00 0.00 94 1013.5
20200713075719 65 149 0.0 0.0 0.00 0.00 0.00 94 1013.6
20200713075220 65 149 0.0 0.0 0.00 0.00 0.00 94 1013.7
20200713074717 65 149 0.0 0.0 0.00 0.00 0.00 94 1013.7
20200713074219 65 149 0.0 0.0 0.00 0.00 0.00 94 1013.8
20200713073719 65 149 0.0 0.0 0.00 0.00 0.00 94 1013.9
20200713073218 65 149 0.0 0.0 0.00 0.00 0.00 94 1014.0
20200713072716 65 137 0.0 0.0 0.00 0.00 0.00 94 1014.0
20200713072217 65 136 0.0 0.0 0.00 0.00 0.00 94 1013.9
20200713071720 65 263 0.0 0.0 0.00 0.00 0.00 94 1013.9
20200713071218 65 263 0.0 0.0 0.00 0.00 0.00 94 1013.9
20200713070717 65 263 0.0 0.0 0.00 0.00 0.00 94 1013.8
20200713070219 65 263 0.0 0.0 0.00 0.00 0.00 94 1013.7
20200713065715 66 263 0.0 0.0 0.00 0.00 0.00 94 1013.7
20200713065216 66 263 0.0 0.0 0.00 0.00 0.00 94 1013.6
20200713064715 66 264 0.0 0.0 0.00 0.00 0.00 94 1013.6
20200713064217 66 245 0.0 0.0 0.00 0.00 0.00 94 1013.4
20200713063715 66 245 0.0 0.0 0.00 0.00 0.00 94 1013.3
20200713063216 66 245 0.0 0.0 0.00 0.00 0.00 94 1013.3
20200713062715 66 243 0.0 0.0 0.00 0.00 0.00 94 1013.3
20200713062215 66 245 0.0 0.0 0.00 0.00 0.00 94 1013.4
20200713061714 66 245 0.0 0.0 0.00 0.00 0.00 94 1013.4
20200713061214 66 245 0.0 0.0 0.00 0.00 0.00 94 1013.4
20200713060713 66 245 0.0 0.0 0.00 0.00 0.00 93 1013.5
20200713060213 66 245 0.0 0.0 0.00 0.00 0.00 93 1013.7
20200713055713 66 245 0.0 0.0 0.00 0.00 0.00 93 1013.7
20200713055212 66 245 0.0 0.0 0.00 0.00 0.00 93 1013.7
20200713054713 66 245 0.0 0.0 0.00 0.00 0.00 93 1013.7
20200713054214 67 245 0.0 0.0 0.00 0.00 0.00 93 1013.6
20200713053714 67 245 0.0 0.0 0.00 0.00 0.00 93 1013.7
20200713053214 67 245 0.0 0.0 0.00 0.00 0.00 93 1013.7
20200713052711 67 217 0.0 0.0 0.00 0.00 0.00 93 1013.7
20200713052212 67 205 0.0 0.0 0.00 0.00 0.00 93 1013.5
20200713051710 67 205 0.0 0.0 0.00 0.00 0.00 93 1013.5
20200713051211 67 226 0.0 0.0 0.00 0.00 0.00 92 1013.5
20200713050711 67 260 0.0 0.0 0.00 0.00 0.00 92 1013.6
20200713050213 67 260 0.0 0.0 0.00 0.00 0.00 92 1013.5
20200713045712 67 260 0.0 0.0 0.00 0.00 0.00 92 1013.6
20200713045210 67 260 0.0 0.0 0.00 0.00 0.00 92 1013.6
20200713044711 68 260 0.0 0.0 0.00 0.00 0.00 92 1013.6
20200713044210 68 260 0.0 0.0 0.00 0.00 0.00 92 1013.6
20200713043710 68 260 0.0 0.0 0.00 0.00 0.00 92 1013.5
20200713043210 68 260 0.0 0.0 0.00 0.00 0.00 91 1013.4
20200713042708 68 259 0.0 0.0 0.00 0.00 0.00 91 1013.3
20200713042210 68 259 0.0 0.0 0.00 0.00 0.00 91 1013.3
20200713041708 68 260 0.0 0.0 0.00 0.00 0.00 92 1013.3
20200713041208 68 260 0.0 0.0 0.00 0.00 0.00 92 1013.2
20200713040708 68 260 0.0 0.0 0.00 0.00 0.00 92 1013.1
20200713040206 68 247 0.0 0.0 0.00 0.00 0.00 92 1013.0
20200713035706 69 165 0.0 0.0 0.00 0.00 0.00 91 1013.0
20200713035207 69 152 0.0 0.0 0.00 0.00 0.00 91 1013.0
20200713034706 69 152 0.0 0.0 0.00 0.00 0.00 91 1013.0
20200713034207 69 152 0.0 0.0 0.00 0.00 0.00 90 1012.9
20200713033704 69 153 0.0 0.0 0.00 0.00 0.00 90 1012.9
20200713033204 69 143 0.0 0.0 0.00 0.00 0.00 90 1013.0
20200713032705 69 290 0.0 0.0 0.00 0.00 0.00 89 1012.9
20200713032204 70 290 0.0 0.0 0.00 0.00 0.00 89 1013.0
20200713031705 70 290 0.0 0.0 0.00 0.00 0.00 89 1013.0
20200713031204 70 290 0.0 0.0 0.00 0.00 0.00 88 1013.0
20200713030705 70 290 0.0 0.0 0.00 0.00 0.00 88 1013.0
20200713030205 71 290 0.0 0.0 0.00 0.00 0.00 87 1013.0
20200713025702 71 290 0.0 0.0 0.00 0.00 0.00 87 1012.9
20200713025202 71 290 0.0 0.0 0.00 0.00 0.00 87 1012.9
20200713024702 71 290 0.0 0.0 0.00 0.00 0.00 87 1012.8
20200713024202 71 290 0.0 0.0 0.00 0.00 0.00 86 1012.7
20200713023703 72 290 0.0 0.0 0.00 0.00 0.00 85 1012.6
20200713023203 72 290 0.0 0.0 0.00 0.00 0.00 84 1012.5
20200713022704 72 290 0.0 0.0 0.00 0.00 0.00 83 1012.4
20200713022203 73 290 0.0 0.0 0.00 0.00 0.00 83 1012.4
20200713021700 73 290 0.0 0.0 0.00 0.00 0.00 82 1012.4
20200713021200 74 290 0.0 0.0 0.00 0.00 0.00 81 1012.5
20200713020701 74 290 0.0 0.0 0.00 0.00 0.00 81 1012.4
20200713020158 74 290 0.0 0.0 0.00 0.00 0.00 80 1012.5
20200713015658 75 290 0.0 0.0 0.00 0.00 0.00 80 1012.4
20200713015158 75 290 0.0 0.0 0.00 0.00 0.00 79 1012.5
20200713014657 76 290 0.0 0.0 0.00 0.00 0.00 77 1012.5
20200713014158 76 290 0.0 0.0 0.00 0.00 0.00 76 1012.5
20200713013658 77 292 0.0 0.0 0.00 0.00 0.00 75 1012.6
20200713013157 78 292 0.0 0.0 0.00 0.00 0.00 72 1012.6
20200713012657 78 292 0.0 0.0 0.00 0.00 0.00 71 1012.6
20200713012156 79 293 0.0 0.0 0.00 0.00 0.00 70 1012.6
20200713011656 79 293 0.0 0.0 0.00 0.00 0.00 67 1012.6
20200713011156 80 292 0.0 0.0 0.00 0.00 0.00 66 1012.6
20200713010655 80 292 0.0 0.0 0.00 0.00 0.00 65 1012.6
20200713010156 81 292 0.0 0.0 0.00 0.00 0.00 65 1012.6
20200713005657 82 293 0.0 0.0 0.00 0.00 0.00 64 1012.7
20200713005156 82 293 0.0 0.0 0.00 0.00 0.00 63 1012.7
20200713004657 83 293 0.0 0.0 0.00 0.00 0.00 62 1012.6
20200713004157 83 292 0.0 2.0 0.00 0.00 0.00 60 1012.6
20200713003655 83 293 0.0 2.0 0.00 0.00 0.00 59 1012.7
20200713003155 84 314 0.0 1.0 0.00 0.00 0.00 59 1012.7
20200713002655 84 322 0.0 1.0 0.00 0.00 0.00 59 1012.6
20200713002155 84 321 0.0 1.0 0.00 0.00 0.00 58 1012.6
20200713001654 84 298 0.0 3.0 0.00 0.00 0.00 59 1012.5
20200713001154 84 312 1.0 4.0 0.00 0.00 0.00 58 1012.5
20200713000656 84 309 1.0 6.0 0.00 0.00 0.00 58 1012.5
20200713000154 84 321 1.0 6.0 0.00 0.00 0.00 57 1012.5
20200712235654 84 302 0.0 5.0 0.00 0.00 0.00 57 1012.4
20200712235153 84 315 1.0 5.0 0.00 0.00 0.00 57 1012.5
20200712234652 84 315 1.0 6.0 0.00 0.00 0.00 58 1012.4
20200712234153 84 323 2.0 6.0 0.00 0.00 0.00 57 1012.3
20200712233653 84 312 3.0 6.0 0.00 0.00 0.00 57 1012.3
20200712233152 84 4 3.0 7.0 0.00 0.00 0.00 55 1012.3
20200712232653 84 298 3.0 7.0 0.00 0.00 0.00 55 1012.3
20200712232152 84 295 2.0 7.0 0.00 0.00 0.00 55 1012.3
20200712231652 85 326 0.0 6.0 0.00 0.00 0.00 56 1012.3
20200712231153 84 316 1.0 5.0 0.00 0.00 0.00 57 1012.4
20200712230652 84 287 3.0 7.0 0.00 0.00 0.00 56 1012.4
20200712230153 85 329 3.0 7.0 0.00 0.00 0.00 54 1012.3
20200712225652 85 34 3.0 7.0 0.00 0.00 0.00 53 1012.3
20200712225150 85 9 3.0 7.0 0.00 0.00 0.00 54 1012.3
20200712224649 85 32 3.0 8.0 0.00 0.00 0.00 54 1012.4
20200712224151 85 6 2.0 8.0 0.00 0.00 0.00 52 1012.3
20200712223647 85 285 1.0 5.0 0.00 0.00 0.00 51 1012.3
20200712223149 85 349 2.0 6.0 0.00 0.00 0.00 55 1012.3
20200712222649 85 298 2.0 6.0 0.00 0.00 0.00 53 1012.4
20200712222149 85 284 3.0 7.0 0.00 0.00 0.00 56 1012.4
20200712221647 84 5 3.0 7.0 0.00 0.00 0.00 55 1012.4
20200712221148 84 316 4.0 9.0 0.00 0.00 0.00 53 1012.4
20200712220646 84 345 3.0 11.0 0.00 0.00 0.00 51 1012.5
20200712220145 85 335 3.0 11.0 0.00 0.00 0.00 51 1012.5
20200712215648 85 320 3.0 10.0 0.00 0.00 0.00 50 1012.5
20200712215146 85 313 2.0 9.0 0.00 0.00 0.00 51 1012.5
20200712214646 85 314 3.0 7.0 0.00 0.00 0.00 52 1012.4
20200712214147 85 319 4.0 10.0 0.00 0.00 0.00 52 1012.5
20200712213646 85 23 3.0 10.0 0.00 0.00 0.00 55 1012.5
20200712213146 85 329 3.0 7.0 0.00 0.00 0.00 53 1012.4
20200712212646 84 259 3.0 7.0 0.00 0.00 0.00 57 1012.4
20200712212146 84 333 3.0 13.0 0.00 0.00 0.00 53 1012.4
20200712211646 84 349 5.0 13.0 0.00 0.00 0.00 56 1012.4
20200712211147 84 342 4.0 11.0 0.00 0.00 0.00 56 1012.3
20200712210648 84 278 3.0 9.0 0.00 0.00 0.00 56 1012.3
20200712210144 83 28 2.0 8.0 0.00 0.00 0.00 55 1012.3
20200712205645 84 291 2.0 6.0 0.00 0.00 0.00 54 1012.4
20200712205145 84 340 3.0 8.0 0.00 0.00 0.00 53 1012.4
20200712204644 85 311 4.0 12.0 0.00 0.00 0.00 57 1012.3
20200712204144 84 359 4.0 12.0 0.00 0.00 0.00 55 1012.3
20200712203644 84 346 4.0 11.0 0.00 0.00 0.00 53 1012.3
20200712203144 85 332 3.0 9.0 0.00 0.00 0.00 55 1012.4
20200712202644 84 345 3.0 10.0 0.00 0.00 0.00 56 1012.3
20200712202144 84 304 3.0 10.0 0.00 0.00 0.00 54 1012.4
20200712201644 84 34 3.0 10.0 0.00 0.00 0.00 54 1012.4
20200712201146 84 320 4.0 10.0 0.00 0.00 0.00 54 1012.4
20200712200644 84 269 5.0 17.0 0.00 0.00 0.00 52 1012.4
20200712200143 84 293 6.0 17.0 0.00 0.00 0.00 53 1012.4
20200712195644 84 356 5.0 13.0 0.00 0.00 0.00 51 1012.3
20200712195145 84 314 3.0 11.0 0.00 0.00 0.00 52 1012.4
20200712194643 84 19 4.0 13.0 0.00 0.00 0.00 51 1012.5
20200712194141 84 287 5.0 13.0 0.00 0.00 0.00 51 1012.5
20200712193643 84 298 6.0 13.0 0.00 0.00 0.00 56 1012.5
20200712193143 83 6 5.0 13.0 0.00 0.00 0.00 52 1012.6
20200712192641 83 15 3.0 10.0 0.00 0.00 0.00 53 1012.6
20200712192139 83 4 2.0 8.0 0.00 0.00 0.00 53 1012.6
20200712191641 83 338 3.0 12.0 0.00 0.00 0.00 58 1012.6
20200712191139 83 295 4.0 12.0 0.00 0.00 0.00 57 1012.6
20200712190640 83 288 2.0 8.0 0.00 0.00 0.00 56 1012.6
20200712190140 82 301 2.0 8.0 0.00 0.00 0.00 57 1012.6
20200712185640 83 309 3.0 9.0 0.00 0.00 0.00 52 1012.6
20200712185139 83 316 4.0 12.0 0.00 0.00 0.00 58 1012.6
20200712184639 83 325 4.0 12.0 0.00 0.00 0.00 56 1012.6
20200712184138 83 337 5.0 12.0 0.00 0.00 0.00 56 1012.6
20200712183639 83 342 7.0 12.0 0.00 0.00 0.00 54 1012.7
20200712183139 83 325 6.0 12.0 0.00 0.00 0.00 56 1012.7
20200712182638 83 12 3.0 10.0 0.00 0.00 0.00 55 1012.7
20200712182137 83 356 3.0 9.0 0.00 0.00 0.00 55 1012.6
20200712181639 82 309 5.0 14.0 0.00 0.00 0.00 58 1012.7
20200712181137 82 298 6.0 14.0 0.00 0.00 0.00 53 1012.7
20200712180638 82 338 6.0 16.0 0.00 0.00 0.00 51 1012.8
20200712180139 82 326 7.0 16.0 0.00 0.00 0.00 53 1012.8
20200712175639 82 332 6.0 13.0 0.00 0.00 0.00 53 1012.8
20200712175138 82 323 6.0 16.0 0.00 0.00 0.00 53 1012.8
20200712174639 82 307 7.0 16.0 0.00 0.00 0.00 53 1012.8
20200712174140 82 335 8.0 14.0 0.00 0.00 0.00 55 1012.7
20200712173637 82 342 7.0 15.0 0.00 0.00 0.00 53 1012.8
20200712173137 81 338 7.0 16.0 0.00 0.00 0.00 59 1012.8
20200712172634 81 342 8.0 16.0 0.00 0.00 0.00 54 1012.9
20200712172133 81 313 8.0 16.0 0.00 0.00 0.00 56 1012.8
20200712171635 81 355 7.0 16.0 0.00 0.00 0.00 56 1012.7
20200712171133 82 8 5.0 12.0 0.00 0.00 0.00 58 1012.7
20200712170633 81 330 6.0 13.0 0.00 0.00 0.00 59 1012.8
20200712170132 81 342 9.0 16.0 0.00 0.00 0.00 57 1012.8
20200712165631 81 25 10.0 16.0 0.00 0.00 0.00 56 1012.7
20200712165131 81 23 9.0 20.0 0.00 0.00 0.00 56 1012.7
20200712164633 80 1 9.0 20.0 0.00 0.00 0.00 58 1012.8
20200712164132 80 315 9.0 20.0 0.00 0.00 0.00 57 1012.8
20200712163632 80 43 9.0 20.0 0.00 0.00 0.00 59 1012.8
20200712163131 80 330 9.0 16.0 0.00 0.00 0.00 60 1012.8
20200712162632 80 47 10.0 18.0 0.00 0.00 0.00 57 1012.6
20200712162131 80 338 11.0 20.0 0.00 0.00 0.00 60 1012.7
20200712161632 80 318 11.0 20.0 0.00 0.00 0.00 57 1012.6
20200712161131 80 342 9.0 18.0 0.00 0.00 0.00 58 1012.7
20200712160632 80 314 9.0 17.0 0.00 0.00 0.00 60 1012.5
20200712160135 79 336 9.0 17.0 0.00 0.00 0.00 61 1012.6
20200712155632 79 335 8.0 16.0 0.00 0.00 0.00 62 1012.5
20200712155132 79 318 8.0 16.0 0.00 0.00 0.00 61 1012.6
20200712154631 79 331 8.0 15.0 0.00 0.00 0.00 62 1012.6
20200712154132 79 323 7.0 14.0 0.00 0.00 0.00 63 1012.5
20200712153633 79 336 8.0 15.0 0.00 0.00 0.00 64 1012.5
20200712153131 79 331 9.0 17.0 0.00 0.00 0.00 64 1012.5
20200712152632 79 323 9.0 18.0 0.00 0.00 0.00 65 1012.4
20200712152131 78 11 8.0 18.0 0.00 0.00 0.00 63 1012.4
20200712151632 78 302 8.0 18.0 0.00 0.00 0.00 66 1012.4
20200712151132 78 0 9.0 18.0 0.00 0.00 0.00 65 1012.4
20200712150631 78 314 7.0 15.0 0.00 0.00 0.00 67 1012.4
20200712150131 78 348 7.0 14.0 0.00 0.00 0.00 67 1012.4
20200712145632 78 316 6.0 15.0 0.00 0.00 0.00 68 1012.4
20200712145131 78 315 5.0 15.0 0.00 0.00 0.00 69 1012.3
20200712144632 78 305 5.0 13.0 0.00 0.00 0.00 70 1012.3
20200712144133 77 323 7.0 14.0 0.00 0.00 0.00 69 1012.4
20200712143631 77 338 7.0 14.0 0.00 0.00 0.00 70 1012.3
20200712143133 77 1 6.0 14.0 0.00 0.00 0.00 71 1012.4
20200712142632 77 328 5.0 11.0 0.00 0.00 0.00 73 1012.5
20200712142131 76 13 6.0 12.0 0.00 0.00 0.00 75 1012.5
20200712141631 76 338 6.0 12.0 0.00 0.00 0.00 73 1012.6